This is the latest recevied weather packets stored in our database for station/object N8ESC. If no packets are shown the sender has not sent any weather packets the latest 10 day(s).
| Time | Temp. | Humidity | Pressure | Rain* | Wind** | Luminosity | Snow |
|---|---|---|---|---|---|---|---|
| 1777469377 | 5.56° C | 73% | 1015.2 hPa | 0 mm | - | 189 W/m² | - |
| 1777469072 | 5.56° C | 73% | 1015.2 hPa | 0 mm | - | 245 W/m² | - |
| 1777468767 | 5.56° C | 75% | 1015.2 hPa | 0 mm | - | 227 W/m² | - |
| 1777468464 | 5° C | 74% | 1015.1 hPa | 0 mm | - | 185 W/m² | - |
| 1777468161 | 5° C | 75% | 1015.2 hPa | 0 mm | - | 180 W/m² | - |
| 1777467856 | 5° C | 76% | 1015.3 hPa | 0 mm | - | 152 W/m² | - |
| 1777467552 | 5° C | 76% | 1015.1 hPa | 0 mm | - | 139 W/m² | - |
| 1777467248 | 5° C | 78% | 1015.5 hPa | 0 mm | - | 122 W/m² | - |
| 1777466944 | 5° C | 79% | 1015.2 hPa | 0 mm | - | 114 W/m² | - |
| 1777466642 | 4.44° C | 79% | 1015.3 hPa | 0 mm | - | 95 W/m² | - |
| 1777466338 | 4.44° C | 79% | 1015.3 hPa | 0 mm | - | 84 W/m² | - |
| 1777466035 | 4.44° C | 79% | 1015.4 hPa | 0 mm | - | 80 W/m² | - |
| 1777465731 | 4.44° C | 79% | 1015.3 hPa | 0 mm | - | 83 W/m² | - |
| 1777465427 | 4.44° C | 79% | 1015.3 hPa | 0 mm | - | 82 W/m² | - |
| 1777465126 | 4.44° C | 79% | 1015.3 hPa | 0 mm | - | 63 W/m² | - |
| 1777464822 | 4.44° C | 80% | 1015.1 hPa | 0 mm | - | 44 W/m² | - |
| 1777464522 | 3.89° C | 81% | 1015.4 hPa | 0 mm | - | 39 W/m² | - |
| 1777464219 | 4.44° C | 81% | 1015.1 hPa | 0 mm | - | 37 W/m² | - |
| 1777463913 | 3.89° C | 80% | 1015 hPa | 0 mm | - | 32 W/m² | - |
| 1777463609 | 3.89° C | 80% | 1015.2 hPa | 0 mm | - | 33 W/m² | - |
| 1777463304 | 3.89° C | 79% | 1014.9 hPa | 0 mm | - | 31 W/m² | - |
| 1777463001 | 3.89° C | 80% | 1014.9 hPa | 0 mm | - | 25 W/m² | - |
| 1777462696 | 3.89° C | 80% | 1015.2 hPa | 0 mm | - | 23 W/m² | - |
| 1777462392 | 3.89° C | 80% | 1015 hPa | 0 mm | - | 19 W/m² | - |
| 1777462088 | 3.89° C | 80% | 1014.8 hPa | 0 mm | - | 17 W/m² | - |
* Rain latest hour (hover to see other rain measurements)
** Current wind speed in m/s (hover to see current wind gust speed)